Flag for Germany

Past Weather in Steinfurt, North Rhine-Westphalia, Germany — Yesterday and Last 2 Weeks

Now
77 °F

Passing clouds.


Feels Like: 79 °F
Forecast: 78 / 67 °F
Wind: 1 mph from North

Location: Muenster / Osnabrueck
Current Time: Aug 14, 2020 at 11:31:30 am
Latest Report: Aug 14, 2020 at 10:50 am
Visibility: N/A
Pressure29.92 "Hg
Humidity: 79%
Dew Point: 70 °F
Location of SteinfurtLocation

Past Weather in Steinfurt — Graph

°F

Steinfurt Temperature Yesterday

Maximum temperature yesterday: 88 °F (at 4:20 pm)
Minimum temperature yesterday: 70 °F (at 4:20 am)
Average temperature yesterday: 77 °F

High & Low Weather Summary for the Past Weeks

 TemperatureHumidityPressure
High97 °F (Aug 8, 4:20 pm)100% (Aug 3, 2:50 am)30.18 "Hg (Aug 3, 2:50 am)
Low48 °F (Aug 3, 4:20 am)19% (Aug 7, 4:20 pm)29.86 "Hg (Aug 13, 4:20 pm)
Average74 °F59%30.01 "Hg
* Reported Jul 30 10:20 am — Aug 14 10:20 am, Steinfurt. Weather by CustomWeather, © 2020

Note: Actual official high and low records may vary slightly from our data, if they occured in-between our weather recording intervals... More about our weather records

Steinfurt Weather History for the Previous 24 Hours

Scroll right to see more
 ConditionsComfort  
Time TempWeatherWind HumidityBarometerVisibility
10:20 am
Fri, Aug 14
73 °FPassing clouds.3 mph83%29.92 "HgN/A
9:50 am72 °FPassing clouds.2 mph88%29.92 "HgN/A
9:20 am72 °FPassing clouds.1 mph88%29.92 "Hg5 mi
8:50 am70 °FPassing clouds.2 mph94%29.89 "Hg4 mi
8:20 am68 °FPassing clouds.2 mph100%29.89 "Hg4 mi
7:50 am68 °FFog.1 mph94%29.89 "Hg2 mi
7:20 am68 °FFog.5 mph94%29.92 "Hg2 mi
6:50 am66 °FFog.2 mph100%29.89 "Hg3 mi
6:20 am66 °FMild.2 mph100%29.89 "Hg3 mi
5:50 am66 °FMild.2 mph100%29.89 "Hg4 mi
5:20 am66 °FMild.3 mph100%29.89 "Hg4 mi
4:50 am66 °FClear.1 mph100%29.89 "Hg5 mi
4:20 am68 °FClear.2 mph94%29.89 "Hg6 mi
3:50 am68 °FPassing clouds.3 mph94%29.89 "HgN/A
3:20 am68 °FClear.1 mph94%29.89 "Hg10 mi
2:50 am68 °FPassing clouds.5 mph100%29.89 "HgN/A
2:20 am70 °FClear.3 mph94%29.89 "Hg10 mi
1:50 am68 °FClear.No wind100%29.89 "Hg10 mi
1:20 am70 °FLight rain. Clear.2 mph94%29.89 "HgN/A
12:50 am68 °FClear.2 mph100%29.89 "Hg10 mi
12:20 am70 °FPassing clouds.3 mph94%29.89 "HgN/A
11:50 pm
Thu, Aug 13
70 °FSprinkles. Passing clouds.3 mph94%29.89 "HgN/A
11:20 pm70 °FSprinkles. Passing clouds.5 mph94%29.89 "HgN/A
10:50 pm70 °FThundershowers. Passing clouds.7 mph94%29.89 "HgN/A
10:20 pm70 °FThunderstorms. Passing clouds.6 mph94%29.89 "Hg6 mi
9:50 pm73 °FStrong thunderstorms. Passing clouds.20 mph89%29.92 "Hg5 mi
9:20 pm79 °FThundershowers. Passing clouds.3 mph61%29.86 "HgN/A
8:50 pm81 °FPassing clouds.3 mph54%29.86 "HgN/A
8:20 pm82 °FPassing clouds.3 mph51%29.86 "HgN/A
7:50 pm82 °FSunny.2 mph55%29.86 "Hg10 mi
7:20 pm84 °FPassing clouds.3 mph51%29.86 "HgN/A
6:50 pm84 °FPassing clouds.6 mph51%29.86 "HgN/A
6:20 pm86 °FPassing clouds.5 mph49%29.86 "HgN/A
5:50 pm88 °FPassing clouds.6 mph46%29.86 "HgN/A
5:20 pm86 °FPassing clouds.6 mph52%29.86 "HgN/A
4:50 pm86 °FPassing clouds.6 mph49%29.86 "HgN/A
4:20 pm88 °FSunny.3 mph46%29.86 "Hg10 mi
3:50 pm84 °FSunny.3 mph51%29.89 "Hg10 mi
3:20 pm84 °FPassing clouds.3 mph51%29.89 "HgN/A
2:50 pm84 °FPassing clouds.5 mph51%29.89 "HgN/A
2:20 pm84 °FPassing clouds.6 mph51%29.89 "HgN/A
1:50 pm82 °FSprinkles. Passing clouds.6 mph55%29.89 "HgN/A
1:20 pm82 °FPassing clouds.5 mph55%29.89 "HgN/A
12:50 pm82 °FPassing clouds.5 mph55%29.89 "HgN/A
12:20 pm81 °FPassing clouds.5 mph58%29.89 "HgN/A
11:50 am81 °FSunny.6 mph58%29.89 "Hg10 mi
11:20 am81 °FPassing clouds.5 mph58%29.89 "HgN/A
Weather by CustomWeather, © 2020

See weather overview